(2007 FT3) |
Classification: Apollo [NEO, PHA] SPK-ID: 3372217 |
[ hide orbit diagram ]
For accurate long-term ephemerides, please instead use our Horizons system.This orbit viewer was implemented using two-body methods, and hence should not be used for determining accurate long-term trajectories (over several years or decades) or planetary encounter circumstances.
Orbital Elements at Epoch 2454180.5 (2007-Mar-21.0) TDB
Reference: JPL 7 (heliocentric ecliptic J2000)
Element | Value | Uncertainty (1-sigma) | Units |
e | .3077514365302609 | 0.0062291 | |
a | 1.129600011655869 | 0.018589 | au |
q | .7819639853641759 | 0.0066686 | au |
i | 26.86573107304766 | 0.42917 | deg |
node | 9.892196653008442 | 0.17362 | deg |
peri | 277.1896528906445 | 2.1394 | deg |
M | 297.9457653118639 | 2.6603 | deg |
tp | 2454256.088265917683 (2007-Jun-04.58826592) | 1.3746 | TDB |
period | 438.5160153392142 1.20 | 10.825 0.02964 | d yr |
n | .8209506321485701 | 0.020265 | deg/d |
Q | 1.477236037947562 | 0.02431 | au |
|
| | Orbit Determination Parameters
Additional Information
|
[ show covariance matrix ]
Physical Parameter Table
Parameter |
Symbol |
Value |
Units |
Sigma |
Reference |
Notes |
absolute magnitude |
H |
20.0 |
|
n/a |
MPO118244 |
|
|
[ show close-approach data ]
|